Location: Waldport
(44.4270°N, 124.0680°W)
Time: 04:15:58
(UTC-07:00)

Meteor 1-26 Rocket - Visible Passes

Search period start: 26 March 2017 00:00
Search period end: 05 April 2017 00:00
Orbit: 832 x 903 km, 81.3° (Epoch: 24 March)

Date Brightness Start Highest point End Pass type
(mag) Time Alt. Az. Time Alt. Az. Time Alt. Az.
26 Mar 6.9 01:17:51 12° NE 01:17:51 12° NE 01:18:14 10° NNE visible
26 Mar 6.3 03:00:13 20° NNW 03:00:13 20° NNW 03:01:59 10° N visible
27 Mar 6.9 01:10:53 12° NE 01:10:53 12° NE 01:11:18 10° NNE visible
27 Mar 6.3 02:53:14 20° NNW 02:53:14 20° NNW 02:55:01 10° N visible
28 Mar 6.9 01:03:54 12° NE 01:03:54 12° NE 01:04:22 10° NNE visible
28 Mar 6.3 02:46:15 20° NNW 02:46:15 20° NNW 02:48:04 10° N visible
29 Mar 6.8 00:56:54 12° NE 00:56:54 12° NE 00:57:26 10° NNE visible
29 Mar 6.3 02:39:15 20° NNW 02:39:15 20° NNW 02:41:06 10° N visible
30 Mar 6.8 00:49:54 13° NE 00:49:54 13° NE 00:50:29 10° NNE visible
30 Mar 6.3 02:32:15 20° NNW 02:32:15 20° NNW 02:34:09 10° N visible
31 Mar 6.7 00:42:53 13° NE 00:42:53 13° NE 00:43:34 10° NNE visible
31 Mar 6.3 02:25:14 21° NNW 02:25:14 21° NNW 02:27:11 10° N visible
01 Apr 6.7 00:35:51 14° NE 00:35:51 14° NE 00:36:38 10° NNE visible
01 Apr 6.3 02:18:12 21° NNW 02:18:12 21° NNW 02:20:13 10° N visible
02 Apr 6.6 00:28:49 14° NE 00:28:49 14° NE 00:29:42 10° NNE visible
02 Apr 6.3 02:11:10 21° NNW 02:11:10 21° NNW 02:13:16 10° N visible
03 Apr 6.6 00:21:46 15° NE 00:21:46 15° NE 00:22:46 10° NNE visible
03 Apr 6.3 02:04:07 22° NNW 02:04:07 22° NNW 02:06:18 10° N visible
04 Apr 6.5 00:14:42 15° NE 00:14:42 15° NE 00:15:51 10° NNE visible
04 Apr 6.2 01:57:03 22° NNW 01:57:03 22° NNW 01:59:21 10° N visible
